Location: Unspecified
(40.7945°N, 111.1337°W)
Time: 16:50:04
(UTC-06:00)

A-11 Canister half - Visible Passes

Search period start: 15 June 2019 00:00
Search period end: 25 June 2019 00:00
Orbit: 1525 x 1684 km, 47.3° (Epoch: 15 June)

Date Brightness Start Highest point End Pass type
(mag) Time Alt. Az. Time Alt. Az. Time Alt. Az.
15 Jun 10.8 05:10:24 10° SSE 05:16:19 19° SE 05:22:11 10° E visible
16 Jun 10.8 04:49:13 10° SSE 04:54:48 17° SE 05:00:18 10° E visible
17 Jun 10.8 04:28:05 10° SSE 04:33:16 16° SE 04:38:22 10° E visible
18 Jun 10.8 04:07:00 10° SSE 04:11:43 15° SE 04:16:23 10° E visible
19 Jun 10.8 03:46:00 10° SSE 03:50:11 14° ESE 03:54:20 10° E visible
20 Jun 10.8 03:25:07 10° SE 03:28:40 13° ESE 03:32:10 10° E visible
21 Jun 10.8 03:04:26 10° SE 03:07:08 11° ESE 03:09:48 10° ESE visible
21 Jun 9.6 05:01:27 10° SSW 05:10:27 49° SE 05:19:15 10° ENE visible
22 Jun 10.8 02:44:16 10° SE 02:45:36 10° ESE 02:46:55 10° ESE visible
22 Jun 9.6 04:40:21 11° SSW 04:48:52 47° SE 04:57:36 10° ENE visible
23 Jun 9.6 04:19:52 15° SSW 04:27:17 45° SE 04:35:57 10° ENE visible
24 Jun 9.6 03:59:20 19° SSW 04:05:42 42° SE 04:14:17 10° ENE visible
